Location: Crescent
(42.8242°N, 73.7329°W)
Time: 18:09:47
(UTC+00:00)

Vanguard 1 Rocket - Pass Details

Date: 19 February 2026
Orbit: 653 x 4214 km, 34.3° (Epoch: 8 March)

Event Time Altitude Azimuth Distance (km) Brightness Sun altitude
Rises 02:07:54 0° 277° (W) 7,456 12.9 -39.8°
Reaches altitude 10° 02:15:27 10° 261° (W) 6,932 12.3 -41.0°
Maximum altitude 02:28:29 18° 229° (SW) 6,700 11.8 -43.1°
Drops below altitude 10° 02:42:21 10° 195° (SSW) 7,263 11.8 -45.3°
Enters shadow 02:50:55 - 179° (S) 7,904 11.9 -46.6°
Sets 02:51:01 0° 179° (S) 7,913 - -46.6°
